qserie.com alexa rank chart, qserie.com alexa rank daily changes

qserie.com alexa rank chart, qserie.com alexa rank daily changes

qserie.com
Actual rank:
34 533

RANK HISTORY

Date Rank Diff
2017/03/29 34 533 +1 040
2017/03/28 33 493 +1 049
2017/03/27 32 444 +1 111
2017/03/26 31 333 +1 105
2017/03/25 30 228 +739
2017/03/24 29 489 +710
2017/03/23 28 779 +778
2017/03/22 28 001 +778
2017/03/21 27 223 +1 067
2017/03/20 26 156 +1 126
2017/03/19 25 030 +713
2017/03/18 24 317 +693
2017/03/17 23 624 +275
2017/03/16 23 349 +67
2017/03/15 23 282 -62
2017/03/14 23 344 -210
2017/03/13 23 554 -287
2017/03/12 23 841 +110
2017/03/11 23 731 -59
2017/03/10 23 790 -49
2017/03/09 23 839 +190
2017/03/08 23 649 -16
2017/03/07 23 665 +692
2017/03/06 22 973 -89
2017/03/01 23 062 +537
2017/02/28 22 525 -42
2017/02/27 22 567 -144
2017/02/26 22 711 -211
2017/02/25 22 922 +23
2017/02/24 22 899 +103
2017/02/23 22 796 +327
2017/02/22 22 469 +54
2017/02/21 22 415 -422
2017/02/20 22 837 -437
2017/02/19 23 274 -189
2017/02/18 23 463 -25
2017/02/17 23 488 +219
2017/02/16 23 269 +283
2017/02/15 22 986 +254
2017/02/14 22 732 +34
2017/02/13 22 698 -23
2017/02/12 22 721 +185
2017/02/11 22 536 +175
2017/02/10 22 361 +474
2017/02/09 21 887 +302
2017/02/08 21 585 +292
2017/02/07 21 293 +86
2017/02/06 21 207 -190
2017/02/05 21 397 +23
2017/02/04 21 374 +312
2017/02/03 21 062 +127
2017/02/02 20 935 +628
2017/02/01 20 307 +237
2017/01/31 20 070 -188
2017/01/30 20 258 +20
2017/01/29 20 238 +139
2017/01/28 20 099

WIDGET FOR YOUR SITE

DOMAINS WITH THE NEAREST RANK

Domain Rank
re-file.com 34 528
humankinetics.com 34 529
fuckedupsexgame.com 34 530
airlinequality.com 34 531
grundfos.com 34 532
qserie.com 34 533
manager.com.br 34 534
brighthubpm.com 34 535
snh48.com 34 536
moskva.fm 34 537
chicksontheright.com 34 538

DOMAINS WITH THE NEAREST RANK BY TLD .com

Domain Rank
re-file.com 34 528
humankinetics.com 34 529
fuckedupsexgame.com 34 530
airlinequality.com 34 531
grundfos.com 34 532
qserie.com 34 533
brighthubpm.com 34 535
snh48.com 34 536
chicksontheright.com 34 538
nichehacks.com 34 542
titantv.com 34 543